Location: Rodanthe
(35.5920°N, 75.4670°W)
Time: 22:34:21
(UTC-05:00)

Daily predictions for brighter satellites

Satellite Brightness Start Highest point End
(mag) Time Altitude Azimuth Time Altitude Azimuth Time Altitude Azimuth
USA 215 4.3 17:36:44 10° E 17:41:56 26° NNE 17:47:07 10° NNW
NOSS 0 Rocket 4.1 17:37:39 10° SSW 17:43:53 84° WNW 17:50:09 10° NNE
SL-16 R/B 2.8 17:43:45 10° SSE 17:48:50 36° ESE 17:53:56 10° NE
Cosmos 1340 Rocket 3.4 17:45:35 10° SSE 17:49:11 35° E 17:52:47 10° NNE
BREEZE-M DEB (TANK) 2.7 17:42:41 10° NW 17:49:52 88° NE 17:52:49 10° SE
SL-14 R/B 3.2 17:46:32 10° S 17:50:23 68° E 17:54:21 10° NNE
Cosmos 1300 2.7 17:47:54 10° N 17:51:42 57° E 17:55:27 10° SSE
Cosmos 1461 3.4 17:48:40 10° S 17:52:39 40° ESE 17:56:31 10° NE
Abrixas 3.6 17:49:58 10° W 17:52:42 34° NNW 17:55:25 10° NE
Cosmos 2058 3.0 17:49:06 10° S 17:53:04 51° E 17:57:04 10° NNE
Cosmos 1634 Rocket 4.0 17:47:11 10° N 17:53:23 82° E 17:59:32 10° S
Cosmos 1484 Rocket 2.9 17:50:03 10° SSE 17:53:53 56° ENE 17:57:48 10° N
SOZ 4.3 17:57:06 10° SW 17:59:24 53° SE 18:01:20 13° ENE
Cosmos 304 Rocket 4.0 17:55:13 10° S 17:59:51 50° ESE 18:04:30 10° NNE
Cosmos 2297 4.4 17:58:01 10° N 18:03:08 33° ENE 18:08:13 10° SE
Cosmos 1844 Rocket 4.3 18:04:54 10° NW 18:10:08 40° WSW 18:15:19 10° S
Cosmos 1356 Rocket 3.8 18:11:07 10° SSE 18:14:47 37° E 18:18:29 10° NNE
Aureole 1 Rocket 4.5 18:11:21 10° SSE 18:15:44 30° E 18:21:16 10° NE
CZ-2C R/B 4.4 18:11:38 10° SSW 18:16:05 32° W 18:20:26 10° NW
Meteor 1-28 Rocket 3.1 18:12:46 10° NNE 18:16:29 73° E 18:20:12 10° S
OTV 4 1.5 18:13:58 10° W 18:16:48 41° SSW 18:19:37 10° SE
YAOGAN 1 4.3 18:13:36 10° SSW 18:17:35 36° W 18:21:37 10° NNW
Cosmos 1125 Rocket 3.9 18:12:43 10° NNW 18:17:53 68° WSW 18:23:01 10° S
Transit 2A Rocket 4.4 18:13:52 10° NNW 18:18:09 65° ENE 18:22:27 10° SE
Meteor 2-10 3.9 18:13:53 10° N 18:19:01 77° E 18:24:18 10° SSE
USA 229 DEB 4.2 18:13:15 10° S 18:19:29 39° ESE 18:24:43 15° NE
USA 229 4.2 18:13:22 10° S 18:19:35 39° ESE 18:24:46 15° NE
COSMO-SKYMED 1 2.9 18:16:41 10° N 18:21:01 67° WNW 18:25:17 10° SSW
Cosmos 1707 Rocket 3.9 18:17:09 10° N 18:21:13 39° E 18:25:17 10° SSE
DMSP B5D1-3 4.4 18:17:21 10° NNE 18:22:28 83° ESE 18:27:34 10° SSW
Resurs 01 Rocket 2.8 18:26:17 21° ENE 18:26:17 21° ENE 18:29:19 10° NNE
FENGYUN 3A 4.5 18:22:13 10° ESE 18:26:36 27° ENE 18:31:00 10° NNE
Cosmos 1666 Rocket 3.6 18:24:25 10° S 18:28:37 53° E 18:32:52 10° NNE
Lacrosse 5 rocket 1.1 18:27:24 10° NW 18:31:14 70° NE 18:34:58 12° SE
METEOR-M 4.1 18:26:28 10° SSE 18:31:41 58° ENE 18:36:56 10° N
Cosmos 1184 Rocket 3.2 18:28:53 10° SSE 18:32:04 42° E 18:33:17 29° NE
Timation 1 Rocket 4.3 18:28:31 10° NNW 18:34:32 68° ENE 18:40:29 10° SSE
Cosmos 1538 Rocket 3.9 18:29:35 10° S 18:34:50 76° ESE 18:40:11 10° NNE
Tiangong 1 3.1 18:35:29 10° S 18:37:03 15° SSE 18:37:03 15° SSE
Iridium 4 Rocket 3.7 18:33:45 10° SSE 18:37:56 35° E 18:39:48 24° NE
Cosmos 2279 Rocket 4.3 18:35:54 10° NNW 18:42:05 70° W 18:48:15 10° S
Cosmos 923 Rocket 4.5 18:37:58 10° SSE 18:42:43 37° E 18:44:22 29° ENE
ALOS 2.7 18:40:43 10° SE 18:44:59 37° ENE 18:49:17 10° N
NOAA 12 4.0 18:42:35 10° SSE 18:47:48 90° ENE 18:53:06 10° NNW
Cosmos 2333 Rocket 4.4 18:45:32 10° WSW 18:49:44 21° WNW 18:53:59 10° N
Cosmos 1680 Rocket 4.1 18:45:28 10° SSE 18:50:03 32° E 18:50:07 32° E
Centaur AC-119 4.0 18:49:31 10° SSW 18:51:37 20° SSE 18:52:10 19° SE
Cosmos 1626 2.6 18:49:07 10° SSW 18:52:48 60° W 18:56:31 10° N
Cosmos 1603 3.9 18:47:59 10° S 18:53:18 45° ESE 18:55:01 35° ENE
Cosmos 292 Rocket 4.1 18:51:44 10° S 18:56:10 41° ESE 18:56:13 41° E
SJ-6B 2.9 18:52:50 10° S 18:56:54 85° W 19:01:02 10° NNW
Milstar 3 4.2 18:52:21 10° WSW 18:58:06 31° SSW 19:04:32 10° SE
Nadezhda 4 Rocket 4.0 18:52:17 10° S 18:58:32 85° W 19:04:53 10° N
Cosmos 1470 Rocket 4.0 18:57:18 10° SSE 19:00:37 41° SE 19:00:37 41° SE
Cosmos 2242 Rocket 3.5 18:57:56 10° N 19:02:18 59° E 19:06:41 10° SSE
Cosmos 2026 Rocket 4.3 18:57:01 10° SSE 19:02:44 39° E 19:03:05 39° E
Cosmos 2278 Rocket 4.0 18:59:31 10° NW 19:04:29 32° WSW 19:09:26 10° SSW
Cosmos 1455 2.3 19:04:05 10° NNW 19:07:52 71° W 19:11:40 10° S
SL-19 R/B 4.2 19:05:21 10° SSE 19:11:21 82° ENE 19:17:00 10° NNW
NOSS 3-1 (C) 4.3 19:07:30 10° S 19:11:02 28° SE 19:11:02 28° SE
Lacrosse 4 Rocket 3.7 19:11:40 10° N 19:12:09 13° N 19:12:09 13° N
Cosmos 773 Rocket 4.2 19:11:04 10° SSW 19:16:11 67° WNW 19:19:20 24° N
FREGAT/IRIS 4.4 19:14:24 10° SSW 19:17:11 33° W 19:20:00 10° NNW
Cosmos 1092 Rocket 4.0 19:12:33 10° S 19:18:53 82° W 19:25:16 10° N
USA 215 3.1 19:21:35 39° SE 19:24:16 81° NE 19:30:50 10° NW
Cosmos 2112 Rocket 4.4 19:20:39 10° S 19:24:29 47° SSE 19:24:29 47° SSE
SL-16 R/B 4.0 19:28:10 10° WSW 19:32:57 28° WNW 19:37:45 10° N
Cosmos 2369 Rocket 4.5 19:29:14 10° N 19:29:27 11° N 19:29:27 11° N
Cosmos 2195 Rocket 4.4 19:38:02 10° S 19:44:07 79° W 19:46:13 44° N
CZ-3A R/B 3.3 19:56:37 10° NW 20:01:10 70° SW 20:01:31 68° SSW
Resurs 01 Rocket 3.7 19:58:20 10° SSW 20:03:49 24° WNW 20:06:10 10° NW
Lacrosse 5 rocket 4.5 20:09:48 10° WSW 20:10:01 10° WSW 20:10:15 10° WSW
